STARLINK-33808 (63767 NORAD) Tracking and Keplerian Element Data

This shows tracking and keplerian element data for the satellite.

Feedback or suggestion? Click here.




ElementValue
Catalog63767
NameSTARLINK-33808
Epoch Orbit3672
Epoch Day353.69658629
Epoch Year2025
RAAN136.9903
Inclination42.9966
Eccentricity0.0002373
Argument of Perigee278.5143
Mean Anonmoly81.544
Mean Motion15.27581244
Decay Rate0.00021977
L11 63767U 25089S 25353.69658629 .00021977 00000+0 80571-3 0 9991
L22 63767 42.9966 136.9903 0002373 278.5143 81.5440 15.27581244 36722



Live tracking and technical data element details for STARLINK-33808 (NORAD 63767). STARLINK-33808 can be tracked NOW for your location showing map with azimuth and elevation plus other details from your city location.







IsCatalogInMostPopularTable: catalog: 63767, numindb: 2
Update: records affected: 1



GetName: 63767 STARLINK-33808

Hit Count: updated at: Sun, 08 Feb 2026 08:46:45 GMT